Time,TemperatureF,DewpointF,PressureIn,WindDirection,WindDirectionDegrees,WindSpeedMPH,WindSpeedGustMPH,Humidity,HourlyPrecipIn,Conditions,Clouds,dailyrainin,SoftwareType,DateUTC
2013-12-12 00:07:00,17.4,1.0,-100.00,North,-999,0.0,0.0,48,0.00,,,-99.99,FreeWX-Wi 1.01,2013-12-12 05:07:00,
2013-12-12 00:17:00,17.4,1.0,-100.00,North,-999,0.0,0.0,48,0.00,,,-99.99,FreeWX-Wi 1.01,2013-12-12 05:17:00,
2013-12-12 00:27:00,17.2,1.0,-100.00,North,-999,0.0,0.0,48,0.00,,,-99.99,FreeWX-Wi 1.01,2013-12-12 05:27:00,
2013-12-12 00:37:00,17.2,1.0,-100.00,North,-999,0.0,0.0,48,0.00,,,-99.99,FreeWX-Wi 1.01,2013-12-12 05:37:00,
2013-12-12 00:47:00,17.1,0.9,-100.00,North,-999,0.0,0.0,48,0.00,,,-99.99,FreeWX-Wi 1.01,2013-12-12 05:47:00,
2013-12-12 00:57:00,16.9,0.7,-100.00,North,-999,0.0,0.0,48,0.00,,,-99.99,FreeWX-Wi 1.01,2013-12-12 05:57:00,
2013-12-12 01:07:00,16.9,1.0,-100.00,North,-999,0.0,0.0,49,0.00,,,-99.99,FreeWX-Wi 1.01,2013-12-12 06:07:00,
2013-12-12 01:17:00,16.7,0.9,-100.00,North,-999,0.0,0.0,49,0.00,,,-99.99,FreeWX-Wi 1.01,2013-12-12 06:17:00,
2013-12-12 01:27:00,16.5,0.7,-100.00,North,-999,0.0,0.0,49,0.00,,,-99.99,FreeWX-Wi 1.01,2013-12-12 06:27:00,
2013-12-12 01:37:00,16.3,0.5,-100.00,North,-999,0.0,0.0,49,0.00,,,-99.99,FreeWX-Wi 1.01,2013-12-12 06:37:00,
2013-12-12 01:47:00,16.5,0.7,-100.00,North,-999,0.0,0.0,49,0.00,,,-99.99,FreeWX-Wi 1.01,2013-12-12 06:47:00,
2013-12-12 01:57:00,16.3,0.5,-100.00,North,-999,0.0,0.0,49,0.00,,,-99.99,FreeWX-Wi 1.01,2013-12-12 06:57:00,
2013-12-12 02:07:00,16.3,0.5,-100.00,North,-999,0.0,0.0,49,0.00,,,-99.99,FreeWX-Wi 1.01,2013-12-12 07:07:00,
2013-12-12 02:17:00,16.2,0.3,-100.00,North,-999,0.0,0.0,49,0.00,,,-99.99,FreeWX-Wi 1.01,2013-12-12 07:17:00,
2013-12-12 02:27:00,16.0,0.3,-100.00,North,-999,0.0,0.0,49,0.00,,,-99.99,FreeWX-Wi 1.01,2013-12-12 07:27:00,
2013-12-12 02:37:00,16.0,0.7,-100.00,North,-999,0.0,0.0,50,0.00,,,-99.99,FreeWX-Wi 1.01,2013-12-12 07:37:00,
2013-12-12 02:47:00,16.5,1.2,-100.00,North,-999,0.0,0.0,50,0.00,,,-99.99,FreeWX-Wi 1.01,2013-12-12 07:47:00,
2013-12-12 02:57:00,17.4,2.5,-100.00,North,-999,0.0,0.0,51,0.00,,,-99.99,FreeWX-Wi 1.01,2013-12-12 07:57:00,
2013-12-12 03:07:00,17.6,2.7,-100.00,North,-999,0.0,0.0,51,0.00,,,-99.99,FreeWX-Wi 1.01,2013-12-12 08:07:00,
2013-12-12 03:17:00,17.8,2.3,-100.00,North,-999,0.0,0.0,50,0.00,,,-99.99,FreeWX-Wi 1.01,2013-12-12 08:17:00,
2013-12-12 03:27:00,17.8,2.3,-100.00,North,-999,0.0,0.0,50,0.00,,,-99.99,FreeWX-Wi 1.01,2013-12-12 08:27:00,
2013-12-12 03:37:00,18.0,2.1,-100.00,North,-999,0.0,0.0,49,0.00,,,-99.99,FreeWX-Wi 1.01,2013-12-12 08:37:00,
2013-12-12 03:47:00,18.1,2.3,-100.00,North,-999,0.0,0.0,49,0.00,,,-99.99,FreeWX-Wi 1.01,2013-12-12 08:47:00,
2013-12-12 03:57:00,18.3,1.9,-100.00,North,-999,0.0,0.0,48,0.00,,,-99.99,FreeWX-Wi 1.01,2013-12-12 08:57:00,
2013-12-12 04:07:00,18.5,2.1,-100.00,North,-999,0.0,0.0,48,0.00,,,-99.99,FreeWX-Wi 1.01,2013-12-12 09:07:00,
2013-12-12 04:17:00,18.3,1.9,-100.00,North,-999,0.0,0.0,48,0.00,,,-99.99,FreeWX-Wi 1.01,2013-12-12 09:17:00,
2013-12-12 04:27:00,18.3,1.6,-100.00,North,-999,0.0,0.0,47,0.00,,,-99.99,FreeWX-Wi 1.01,2013-12-12 09:27:00,
2013-12-12 04:37:00,18.1,1.4,-100.00,North,-999,0.0,0.0,47,0.00,,,-99.99,FreeWX-Wi 1.01,2013-12-12 09:37:00,
2013-12-12 04:47:00,18.0,1.2,-100.00,North,-999,0.0,0.0,47,0.00,,,-99.99,FreeWX-Wi 1.01,2013-12-12 09:47:00,
2013-12-12 04:57:00,17.6,0.9,-100.00,North,-999,0.0,0.0,47,0.00,,,-99.99,FreeWX-Wi 1.01,2013-12-12 09:57:00,
2013-12-12 05:07:00,17.4,0.7,-100.00,North,-999,0.0,0.0,47,0.00,,,-99.99,FreeWX-Wi 1.01,2013-12-12 10:07:00,
2013-12-12 05:17:00,16.9,0.1,-100.00,North,-999,0.0,0.0,47,0.00,,,-99.99,FreeWX-Wi 1.01,2013-12-12 10:17:00,
2013-12-12 05:27:00,16.5,-0.2,-100.00,North,-999,0.0,0.0,47,0.00,,,-99.99,FreeWX-Wi 1.01,2013-12-12 10:27:00,
2013-12-12 05:37:00,16.0,-0.6,-100.00,North,-999,0.0,0.0,47,0.00,,,-99.99,FreeWX-Wi 1.01,2013-12-12 10:37:00,
2013-12-12 05:47:00,15.8,-0.4,-100.00,North,-999,0.0,0.0,48,0.00,,,-99.99,FreeWX-Wi 1.01,2013-12-12 10:47:00,
2013-12-12 05:57:00,15.4,-0.8,-100.00,North,-999,0.0,0.0,48,0.00,,,-99.99,FreeWX-Wi 1.01,2013-12-12 10:57:00,
2013-12-12 06:07:00,15.1,-1.1,-100.00,North,-999,0.0,0.0,48,0.00,,,-99.99,FreeWX-Wi 1.01,2013-12-12 11:07:00,
2013-12-12 06:17:00,15.1,-1.1,-100.00,North,-999,0.0,0.0,48,0.00,,,-99.99,FreeWX-Wi 1.01,2013-12-12 11:17:00,
2013-12-12 06:27:00,14.9,-1.1,-100.00,North,-999,0.0,0.0,48,0.00,,,-99.99,FreeWX-Wi 1.01,2013-12-12 11:27:00,
2013-12-12 06:37:00,14.5,-2.9,-100.00,North,-999,0.0,0.0,45,0.00,,,-99.99,FreeWX-Wi 1.01,2013-12-12 11:37:00,
2013-12-12 06:47:00,14.4,-3.1,-100.00,North,-999,0.0,0.0,45,0.00,,,-99.99,FreeWX-Wi 1.01,2013-12-12 11:47:00,
2013-12-12 06:57:00,14.0,-4.4,-100.00,North,-999,0.0,0.0,43,0.00,,,-99.99,FreeWX-Wi 1.01,2013-12-12 11:57:00,
2013-12-12 07:07:00,13.8,-4.5,-100.00,North,-999,0.0,0.0,43,0.00,,,-99.99,FreeWX-Wi 1.01,2013-12-12 12:07:00,
2013-12-12 07:17:00,13.5,-4.9,-100.00,North,-999,0.0,0.0,43,0.00,,,-99.99,FreeWX-Wi 1.01,2013-12-12 12:17:00,
2013-12-12 07:27:00,13.3,-4.9,-100.00,North,-999,0.0,0.0,43,0.00,,,-99.99,FreeWX-Wi 1.01,2013-12-12 12:27:00,
2013-12-12 07:37:00,13.3,-4.9,-100.00,North,-999,0.0,0.0,43,0.00,,,-99.99,FreeWX-Wi 1.01,2013-12-12 12:37:00,
2013-12-12 07:47:00,13.3,-4.9,-100.00,North,-999,0.0,0.0,43,0.00,,,-99.99,FreeWX-Wi 1.01,2013-12-12 12:47:00,
2013-12-12 07:57:00,13.8,-4.5,-100.00,North,-999,0.0,0.0,43,0.00,,,-99.99,FreeWX-Wi 1.01,2013-12-12 12:57:00,
2013-12-12 08:07:00,14.2,-4.2,-100.00,North,-999,0.0,0.0,43,0.00,,,-99.99,FreeWX-Wi 1.01,2013-12-12 13:07:00,
2013-12-12 08:17:00,14.7,-3.6,-100.00,North,-999,0.0,0.0,43,0.00,,,-99.99,FreeWX-Wi 1.01,2013-12-12 13:17:00,
2013-12-12 08:28:00,15.1,-3.3,-100.00,North,-999,0.0,0.0,43,0.00,,,-99.99,FreeWX-Wi 1.01,2013-12-12 13:28:00,
2013-12-12 08:37:00,15.4,-4.5,-100.00,North,-999,0.0,0.0,40,0.00,,,-99.99,FreeWX-Wi 1.01,2013-12-12 13:37:00,
2013-12-12 08:47:00,15.8,-4.2,-100.00,North,-999,0.0,0.0,40,0.00,,,-99.99,FreeWX-Wi 1.01,2013-12-12 13:47:00,
2013-12-12 08:57:00,16.3,-5.3,-100.00,North,-999,0.0,0.0,37,0.00,,,-99.99,FreeWX-Wi 1.01,2013-12-12 13:57:00,
2013-12-12 09:07:00,16.7,-5.1,-100.00,North,-999,0.0,0.0,37,0.00,,,-99.99,FreeWX-Wi 1.01,2013-12-12 14:07:00,
2013-12-12 09:17:00,17.1,-5.8,-100.00,North,-999,0.0,0.0,35,0.00,,,-99.99,FreeWX-Wi 1.01,2013-12-12 14:17:00,
2013-12-12 09:27:00,17.2,-5.6,-100.00,North,-999,0.0,0.0,35,0.00,,,-99.99,FreeWX-Wi 1.01,2013-12-12 14:27:00,
2013-12-12 09:37:00,17.4,-7.4,-100.00,North,-999,0.0,0.0,32,0.00,,,-99.99,FreeWX-Wi 1.01,2013-12-12 14:37:00,
2013-12-12 09:47:00,17.6,-7.2,-100.00,North,-999,0.0,0.0,32,0.00,,,-99.99,FreeWX-Wi 1.01,2013-12-12 14:47:00,
2013-12-12 09:57:00,17.8,-7.1,-100.00,North,-999,0.0,0.0,32,0.00,,,-99.99,FreeWX-Wi 1.01,2013-12-12 14:57:00,
2013-12-12 10:07:00,18.0,-6.9,-100.00,North,-999,0.0,0.0,32,0.00,,,-99.99,FreeWX-Wi 1.01,2013-12-12 15:07:00,
2013-12-12 10:17:00,18.1,-6.7,-100.00,North,-999,0.0,0.0,32,0.00,,,-99.99,FreeWX-Wi 1.01,2013-12-12 15:17:00,
2013-12-12 10:27:00,18.3,-6.5,-100.00,North,-999,0.0,0.0,32,0.00,,,-99.99,FreeWX-Wi 1.01,2013-12-12 15:27:00,
2013-12-12 10:37:00,18.3,-6.5,-100.00,North,-999,0.0,0.0,32,0.00,,,-99.99,FreeWX-Wi 1.01,2013-12-12 15:37:00,
2013-12-12 10:47:00,18.5,-6.3,-100.00,North,-999,0.0,0.0,32,0.00,,,-99.99,FreeWX-Wi 1.01,2013-12-12 15:47:00,
2013-12-12 10:57:00,18.5,-6.3,-100.00,North,-999,0.0,0.0,32,0.00,,,-99.99,FreeWX-Wi 1.01,2013-12-12 15:57:00,
2013-12-12 11:07:00,18.7,-6.2,-100.00,North,-999,0.0,0.0,32,0.00,,,-99.99,FreeWX-Wi 1.01,2013-12-12 16:07:00,
2013-12-12 11:17:00,18.9,-6.0,-100.00,North,-999,0.0,0.0,32,0.00,,,-99.99,FreeWX-Wi 1.01,2013-12-12 16:17:00,
2013-12-12 11:27:00,19.2,-5.8,-100.00,North,-999,0.0,0.0,32,0.00,,,-99.99,FreeWX-Wi 1.01,2013-12-12 16:27:00,
2013-12-12 11:37:00,19.4,-5.6,-100.00,North,-999,0.0,0.0,32,0.00,,,-99.99,FreeWX-Wi 1.01,2013-12-12 16:37:00,
2013-12-12 11:47:00,19.6,-5.4,-100.00,North,-999,0.0,0.0,32,0.00,,,-99.99,FreeWX-Wi 1.01,2013-12-12 16:47:00,
2013-12-12 11:57:00,19.8,-5.3,-100.00,North,-999,0.0,0.0,32,0.00,,,-99.99,FreeWX-Wi 1.01,2013-12-12 16:57:00,
2013-12-12 12:07:00,19.9,-5.1,-100.00,North,-999,0.0,0.0,32,0.00,,,-99.99,FreeWX-Wi 1.01,2013-12-12 17:07:00,
2013-12-12 12:17:00,19.8,-5.3,-100.00,North,-999,0.0,0.0,32,0.00,,,-99.99,FreeWX-Wi 1.01,2013-12-12 17:17:00,
2013-12-12 12:27:00,19.9,-5.1,-100.00,North,-999,0.0,0.0,32,0.00,,,-99.99,FreeWX-Wi 1.01,2013-12-12 17:27:00,
2013-12-12 12:37:00,19.9,-5.1,-100.00,North,-999,0.0,0.0,32,0.00,,,-99.99,FreeWX-Wi 1.01,2013-12-12 17:37:00,
2013-12-12 12:47:00,19.9,-5.1,-100.00,North,-999,0.0,0.0,32,0.00,,,-99.99,FreeWX-Wi 1.01,2013-12-12 17:47:00,
2013-12-12 12:57:00,20.1,-4.9,-100.00,North,-999,0.0,0.0,32,0.00,,,-99.99,FreeWX-Wi 1.01,2013-12-12 17:57:00,
2013-12-12 13:07:00,20.1,-4.9,-100.00,North,-999,0.0,0.0,32,0.00,,,-99.99,FreeWX-Wi 1.01,2013-12-12 18:07:00,
2013-12-12 13:17:00,20.1,-4.9,-100.00,North,-999,0.0,0.0,32,0.00,,,-99.99,FreeWX-Wi 1.01,2013-12-12 18:17:00,
2013-12-12 13:27:00,19.9,-5.1,-100.00,North,-999,0.0,0.0,32,0.00,,,-99.99,FreeWX-Wi 1.01,2013-12-12 18:27:00,
2013-12-12 13:37:00,19.9,-5.1,-100.00,North,-999,0.0,0.0,32,0.00,,,-99.99,FreeWX-Wi 1.01,2013-12-12 18:37:00,
2013-12-12 13:47:00,19.9,-5.1,-100.00,North,-999,0.0,0.0,32,0.00,,,-99.99,FreeWX-Wi 1.01,2013-12-12 18:47:00,
2013-12-12 13:57:00,19.9,-5.1,-100.00,North,-999,0.0,0.0,32,0.00,,,-99.99,FreeWX-Wi 1.01,2013-12-12 18:57:00,
2013-12-12 14:07:00,19.9,-5.1,-100.00,North,-999,0.0,0.0,32,0.00,,,-99.99,FreeWX-Wi 1.01,2013-12-12 19:07:00,
2013-12-12 14:17:00,20.1,-4.9,-100.00,North,-999,0.0,0.0,32,0.00,,,-99.99,FreeWX-Wi 1.01,2013-12-12 19:17:00,
2013-12-12 14:27:00,19.9,-5.1,-100.00,North,-999,0.0,0.0,32,0.00,,,-99.99,FreeWX-Wi 1.01,2013-12-12 19:27:00,
2013-12-12 14:37:00,19.9,-5.1,-100.00,North,-999,0.0,0.0,32,0.00,,,-99.99,FreeWX-Wi 1.01,2013-12-12 19:37:00,
2013-12-12 14:47:00,19.9,-5.1,-100.00,North,-999,0.0,0.0,32,0.00,,,-99.99,FreeWX-Wi 1.01,2013-12-12 19:47:00,
2013-12-12 14:57:00,19.8,-5.3,-100.00,North,-999,0.0,0.0,32,0.00,,,-99.99,FreeWX-Wi 1.01,2013-12-12 19:57:00,
2013-12-12 15:07:00,19.4,-5.6,-100.00,North,-999,0.0,0.0,32,0.00,,,-99.99,FreeWX-Wi 1.01,2013-12-12 20:07:00,
2013-12-12 15:17:00,19.2,-5.8,-100.00,North,-999,0.0,0.0,32,0.00,,,-99.99,FreeWX-Wi 1.01,2013-12-12 20:17:00,
2013-12-12 15:27:00,19.0,-6.0,-100.00,North,-999,0.0,0.0,32,0.00,,,-99.99,FreeWX-Wi 1.01,2013-12-12 20:27:00,
2013-12-12 15:37:00,18.7,-6.2,-100.00,North,-999,0.0,0.0,32,0.00,,,-99.99,FreeWX-Wi 1.01,2013-12-12 20:37:00,
2013-12-12 15:47:00,18.3,-6.5,-100.00,North,-999,0.0,0.0,32,0.00,,,-99.99,FreeWX-Wi 1.01,2013-12-12 20:47:00,
2013-12-12 15:57:00,18.1,-6.7,-100.00,North,-999,0.0,0.0,32,0.00,,,-99.99,FreeWX-Wi 1.01,2013-12-12 20:57:00,
2013-12-12 16:07:00,18.0,-6.9,-100.00,North,-999,0.0,0.0,32,0.00,,,-99.99,FreeWX-Wi 1.01,2013-12-12 21:07:00,
2013-12-12 16:17:00,17.6,-7.2,-100.00,North,-999,0.0,0.0,32,0.00,,,-99.99,FreeWX-Wi 1.01,2013-12-12 21:17:00,
2013-12-12 16:27:00,17.4,-7.4,-100.00,North,-999,0.0,0.0,32,0.00,,,-99.99,FreeWX-Wi 1.01,2013-12-12 21:27:00,
2013-12-12 16:37:00,17.1,-7.6,-100.00,North,-999,0.0,0.0,32,0.00,,,-99.99,FreeWX-Wi 1.01,2013-12-12 21:37:00,
2013-12-12 16:47:00,16.7,-8.0,-100.00,North,-999,0.0,0.0,32,0.00,,,-99.99,FreeWX-Wi 1.01,2013-12-12 21:47:00,
2013-12-12 16:57:00,16.5,-8.1,-100.00,North,-999,0.0,0.0,32,0.00,,,-99.99,FreeWX-Wi 1.01,2013-12-12 21:57:00,
2013-12-12 17:07:00,16.2,-8.5,-100.00,North,-999,0.0,0.0,32,0.00,,,-99.99,FreeWX-Wi 1.01,2013-12-12 22:07:00,
2013-12-12 17:17:00,15.8,-8.1,-100.00,North,-999,0.0,0.0,33,0.00,,,-99.99,FreeWX-Wi 1.01,2013-12-12 22:17:00,
2013-12-12 17:27:00,15.6,-8.3,-100.00,North,-999,0.0,0.0,33,0.00,,,-99.99,FreeWX-Wi 1.01,2013-12-12 22:27:00,
2013-12-12 17:37:00,15.4,-8.5,-100.00,North,-999,0.0,0.0,33,0.00,,,-99.99,FreeWX-Wi 1.01,2013-12-12 22:37:00,
2013-12-12 17:47:00,15.1,-8.9,-100.00,North,-999,0.0,0.0,33,0.00,,,-99.99,FreeWX-Wi 1.01,2013-12-12 22:47:00,
2013-12-12 17:57:00,14.9,-8.9,-100.00,North,-999,0.0,0.0,33,0.00,,,-99.99,FreeWX-Wi 1.01,2013-12-12 22:57:00,
2013-12-12 18:07:00,14.4,-9.4,-100.00,North,-999,0.0,0.0,33,0.00,,,-99.99,FreeWX-Wi 1.01,2013-12-12 23:07:00,
2013-12-12 18:17:00,14.0,-9.8,-100.00,North,-999,0.0,0.0,33,0.00,,,-99.99,FreeWX-Wi 1.01,2013-12-12 23:17:00,
2013-12-12 18:27:00,13.8,-9.9,-100.00,North,-999,0.0,0.0,33,0.00,,,-99.99,FreeWX-Wi 1.01,2013-12-12 23:27:00,
2013-12-12 18:37:00,13.5,-10.3,-100.00,North,-999,0.0,0.0,33,0.00,,,-99.99,FreeWX-Wi 1.01,2013-12-12 23:37:00,
2013-12-12 18:47:00,13.5,-10.3,-100.00,North,-999,0.0,0.0,33,0.00,,,-99.99,FreeWX-Wi 1.01,2013-12-12 23:47:00,
2013-12-12 18:57:00,13.1,-10.5,-100.00,North,-999,0.0,0.0,33,0.00,,,-99.99,FreeWX-Wi 1.01,2013-12-12 23:57:00,
2013-12-12 19:07:00,12.9,-10.7,-100.00,North,-999,0.0,0.0,33,0.00,,,-99.99,FreeWX-Wi 1.01,2013-12-13 00:07:00,
2013-12-12 19:17:00,12.7,-10.8,-100.00,North,-999,0.0,0.0,33,0.00,,,-99.99,FreeWX-Wi 1.01,2013-12-13 00:17:00,
2013-12-12 19:27:00,12.7,-10.8,-100.00,North,-999,0.0,0.0,33,0.00,,,-99.99,FreeWX-Wi 1.01,2013-12-13 00:27:00,
2013-12-12 19:37:00,12.6,-11.0,-100.00,North,-999,0.0,0.0,33,0.00,,,-99.99,FreeWX-Wi 1.01,2013-12-13 00:37:00,
2013-12-12 19:47:00,12.6,-11.0,-100.00,North,-999,0.0,0.0,33,0.00,,,-99.99,FreeWX-Wi 1.01,2013-12-13 00:47:00,
2013-12-12 19:57:00,12.4,-11.2,-100.00,North,-999,0.0,0.0,33,0.00,,,-99.99,FreeWX-Wi 1.01,2013-12-13 00:57:00,
2013-12-12 20:07:00,12.4,-11.2,-100.00,North,-999,0.0,0.0,33,0.00,,,-99.99,FreeWX-Wi 1.01,2013-12-13 01:07:00,
2013-12-12 20:17:00,12.2,-10.7,-100.00,North,-999,0.0,0.0,34,0.00,,,-99.99,FreeWX-Wi 1.01,2013-12-13 01:17:00,
2013-12-12 20:27:00,11.8,-11.0,-100.00,North,-999,0.0,0.0,34,0.00,,,-99.99,FreeWX-Wi 1.01,2013-12-13 01:27:00,
2013-12-12 20:37:00,11.8,-11.0,-100.00,North,-999,0.0,0.0,34,0.00,,,-99.99,FreeWX-Wi 1.01,2013-12-13 01:37:00,
2013-12-12 20:47:00,11.8,-11.0,-100.00,North,-999,0.0,0.0,34,0.00,,,-99.99,FreeWX-Wi 1.01,2013-12-13 01:47:00,
2013-12-12 20:57:00,12.2,-10.7,-100.00,North,-999,0.0,0.0,34,0.00,,,-99.99,FreeWX-Wi 1.01,2013-12-13 01:57:00,
2013-12-12 21:07:00,12.2,-10.7,-100.00,North,-999,0.0,0.0,34,0.00,,,-99.99,FreeWX-Wi 1.01,2013-12-13 02:07:00,
2013-12-12 21:17:00,12.4,-11.2,-100.00,North,-999,0.0,0.0,33,0.00,,,-99.99,FreeWX-Wi 1.01,2013-12-13 02:17:00,
2013-12-12 21:27:00,12.4,-11.2,-100.00,North,-999,0.0,0.0,33,0.00,,,-99.99,FreeWX-Wi 1.01,2013-12-13 02:27:00,
2013-12-12 21:37:00,12.2,-10.7,-100.00,North,-999,0.0,0.0,34,0.00,,,-99.99,FreeWX-Wi 1.01,2013-12-13 02:37:00,
2013-12-12 21:47:00,12.2,-10.7,-100.00,North,-999,0.0,0.0,34,0.00,,,-99.99,FreeWX-Wi 1.01,2013-12-13 02:47:00,
2013-12-12 21:57:00,12.2,-10.7,-100.00,North,-999,0.0,0.0,34,0.00,,,-99.99,FreeWX-Wi 1.01,2013-12-13 02:57:00,
2013-12-12 22:07:00,12.2,-10.7,-100.00,North,-999,0.0,0.0,34,0.00,,,-99.99,FreeWX-Wi 1.01,2013-12-13 03:07:00,
2013-12-12 22:17:00,12.0,-10.8,-100.00,North,-999,0.0,0.0,34,0.00,,,-99.99,FreeWX-Wi 1.01,2013-12-13 03:17:00,
2013-12-12 22:27:00,12.2,-10.7,-100.00,North,-999,0.0,0.0,34,0.00,,,-99.99,FreeWX-Wi 1.01,2013-12-13 03:27:00,
2013-12-12 22:37:00,12.2,-10.7,-100.00,North,-999,0.0,0.0,34,0.00,,,-99.99,FreeWX-Wi 1.01,2013-12-13 03:37:00,
2013-12-12 22:47:00,12.2,-10.7,-100.00,North,-999,0.0,0.0,34,0.00,,,-99.99,FreeWX-Wi 1.01,2013-12-13 03:47:00,
2013-12-12 22:57:00,12.0,-10.8,-100.00,North,-999,0.0,0.0,34,0.00,,,-99.99,FreeWX-Wi 1.01,2013-12-13 03:57:00,
2013-12-12 23:07:00,11.7,-11.2,-100.00,North,-999,0.0,0.0,34,0.00,,,-99.99,FreeWX-Wi 1.01,2013-12-13 04:07:00,
2013-12-12 23:17:00,11.5,-11.4,-100.00,North,-999,0.0,0.0,34,0.00,,,-99.99,FreeWX-Wi 1.01,2013-12-13 04:17:00,
2013-12-12 23:27:00,11.3,-11.6,-100.00,North,-999,0.0,0.0,34,0.00,,,-99.99,FreeWX-Wi 1.01,2013-12-13 04:27:00,
2013-12-12 23:37:00,10.9,-11.9,-100.00,North,-999,0.0,0.0,34,0.00,,,-99.99,FreeWX-Wi 1.01,2013-12-13 04:37:00,
2013-12-12 23:47:00,10.8,-12.1,-100.00,North,-999,0.0,0.0,34,0.00,,,-99.99,FreeWX-Wi 1.01,2013-12-13 04:47:00,
2013-12-12 23:57:00,10.2,-12.5,-100.00,North,-999,0.0,0.0,34,0.00,,,-99.99,FreeWX-Wi 1.01,2013-12-13 04:57:00,